SCP
-0 0 0 0 0 0 0 0 0 0 0 0 0 0 0 0 0 0 0 0 0 0 0 0 0 0 0 0 0 0 0 0 0 0 0 0 0 0 0 0 0 0 0 0
-0 0 0 0 0 0 0 0 0 0 0 0 0 0 0 0 0 0 0 0 0 0 0 0 0 0 0 0 0 0 0 0 0 0 0 0 0 0 0 0 0 0 0 0
0 0 -0 0 0 0 0 0 0 0 0 0 0 0 0 0 0 0 0 0 0 0 0 0 0 0 0 0 0 0 0 0 0 0 0 0 0 0 0 0 0 0 0 0
0 -0 -0 0 0 0 0 0 0 0 0 0 0 0 0 0 0 0 0 0 0 0 0 0 0 0 0 0 0 0 0 0 0 0 0 0 0 0 0 0 0 0 0 0
0 -0 -0 -0 -0 -0 0 0 0 0 0 0 0 0 0 0 0 0 0 0 0 0 0 0 0 0 0 0 0 0 0 0 0 0 0 0 0 0 0 0 0 0 0 0
0 0 0 0 -0 -0 -0 -0 0 0 0 0 0 0 0 0 0 0 0 0 0 0 0 0 0 0 0 0 0 0 0 0 0 0 0 0 0 0 0 0 0 0 0 0
0 0 0 0 0 -0 -0 -0 0 0 0 0 0 0 0 0 0 0 0 0 0 0 0 0 0 0 0 0 0 0 0 0 0 0 0 0 0 0 0 0 0 0 0 0
0 0 0 0 0 0 -0 -0 -0 0 0 0 0 0 0 0 0 0 0 0 0 0 0 0 0 0 0 0 0 0 0 0 0 0 0 0 0 0 0 0 0 0 0 0
0 0 0 0 0 0 0 0 0 0 0 0 0 0 0 0 0 0 0 0 0 0 0 0 0 0 0 0 0 0 0 0 0 0 0 0 0 0 0 0 0 0 0 0
0 0 0 0 0 0 0 0 0 0 -0 0 0 0 0 0 0 0 0 0 0 0 0 0 0 0 0 0 0 0 0 0 0 0 0 0 0 0 0 0 0 0 0 0
0 0 0 0 0 0 0 0 0 0 0 0 0 0 0 0 0 0 0 0 0 0 0 0 0 0 0 0 0 0 0 0 0 0 0 0 0 0 0 0 0 0 0 0
-0 0 0 0 0 0 0 0 0 0 0 0 0 0 0 -0 -0 -0 0 0 0 0 0 0 0 0 0 0 0 0 0 0 0 0 0 0 0 0 0 0 0 0 0 0
0 0 0 0 0 0 0 0 0 0 0 0 0 0 0 -0 0 0 0 0 0 0 0 0 0 0 0 0 0 0 0 0 0 0 0 0 0 0 0 0 0 0 0 0
0 0 0 0 0 0 0 0 0 0 0 0 0 0 0 0 0 0 0 0 0 0 0 0 0 0 0 0 0 0 0 0 0 0 0 0 0 0 0 0 0 0 0 0
0 0 -0 -0 0 0 0 0 0 0 0 0 0 0 0 0 0 -0 0 0 0 0 0 0 0 0 0 0 0 0 0 0 0 0 0 0 0 0 0 0 0 0 0 0
0 0 0 0 0 0 -0 -0 0 0 0 0 0 0 0 0 0 0 0 0 0 0 0 0 0 0 0 0 0 0 0 0 0 0 0 0 0 0 0 0 0 0 0 0
0 0 0 0 0 0 0 -0 0 0 0 0 0 0 0 0 0 0 0 0 0 0 0 0 0 0 0 0 0 0 0 0 0 0 0 0 0 0 0 0 0 0 0 0
0 0 0 0 0 0 0 0 0 0 0 0 0 0 0 0 0 0 0 0 0 0 0 0 0 0 0 0 0 0 0 0 0 0 0 0 0 0 0 0 0 0 0 0
0 0 0 0 0 0 0 0 0 0 0 0 0 0 0 0 0 0 0 0 0 0 0 0 0 0 0 0 0 0 0 0 0 0 0 0 0 0 0 0 0 0 0 0
0 0 0 0 0 0 0 0 0 0 0 0 0 0 0 0 0 0 0 0 0 0 0 0 0 0 0 0 0 0 0 0 0 0 0 0 0 0 0 0 0 0 0 0
0 0 0 0 0 0 0 0 0 0 0 0 0 0 0 0 0 0 0 0 0 0 0 0 0 0 0 0 0 0 0 0 0 0 0 0 0 0 0 0 0 0 0 0
0 0 0 0 0 0 0 0 0 0 0 0 0 0 0 0 0 0 0 0 0 0 0 0 0 0 0 0 0 0 0 0 0 0 0 0 0 0 0 0 0 0 0 0
0 0 0 0 0 0 0 0 0 0 0 0 0 0 0 0 0 0 0 0 0 0 0 0 0 0 0 0 0 0 0 0 0 0 0 0 0 0 0 0 0 0 0 0
0 0 0 0 0 0 0 0 0 0 0 0 0 0 0 0 0 0 0 0 0 0 0 0 0 0 0 0 0 0 0 0 0 0 0 0 0 0 0 0 0 0 0 0
0 0 0 0 0 0 0 0 0 0 0 0 0 0 0 0 0 0 0 0 0 0 0 0 0 0 0 0 0 0 0 0 0 0 0 0 0 0 0 0 0 0 0 0
0 0 0 0 0 0 0 0 0 0 0 0 0 0 0 0 0 0 0 0 0 0 0 0 0 0 0 0 0 0 0 0 0 0 0 0 0 0 0 0 0 0 0 0
Wind_Speed_500mb
7 6 12 17 3 4 17 17 12 1 10 9 13 12 12 23 14 7 15 20 29 28 33 33 38 39 40 38 41 36 35 34 36 39 40 39 41 39 40 40 38 37 38 37
4 16 17 12 17 5 16 18 5 5 5 5 13 10 9 6 12 16 15 11 22 19 24 33 34 36 42 42 40 40 38 37 38 39 40 40 39 41 42 38 37 37 38 37
12 14 26 21 8 4 10 9 14 8 5 1 8 9 11 13 14 19 14 12 5 23 32 30 37 42 42 45 43 45 42 42 41 40 39 37 37 40 37 34 35 36 35 37
4 19 18 16 14 3 5 10 22 26 14 3 4 3 8 3 10 3 13 16 15 11 12 13 21 26 32 39 46 44 47 49 47 50 49 49 43 41 34 25 26 28 33 35
7 13 18 13 9 18 5 12 13 22 14 10 2 6 7 8 11 15 21 18 8 1 12 21 21 19 29 36 34 34 36 39 39 41 42 42 42 40 39 38 38 41 38 30
9 7 4 2 19 21 15 10 9 8 9 6 8 1 8 6 3 5 10 12 12 12 7 18 33 30 38 39 34 32 33 31 29 29 29 30 31 32 34 35 37 37 36 35
7 10 7 2 14 12 8 9 3 2 3 4 8 7 10 11 10 7 11 13 13 14 9 8 6 19 32 35 35 32 30 27 27 28 29 29 30 32 32 33 32 32 29 29
4 3 6 6 7 4 11 9 5 3 3 5 6 8 2 12 18 19 21 22 13 8 9 8 5 3 6 12 16 19 22 23 24 23 21 19 18 16 14 13 14 17 20 23
10 8 9 9 8 8 4 6 2 8 5 2 6 7 11 16 15 19 25 28 25 14 11 5 5 3 1 4 9 12 14 14 12 11 10 9 8 6 4 4 4 6 7 11
8 1 7 8 5 4 5 14 5 6 6 5 7 5 7 16 15 20 27 30 24 16 9 10 6 4 4 5 8 11 13 13 13 13 11 9 6 4 4 4 4 5 5 6
15 6 4 2 7 4 5 2 8 7 2 1 4 2 7 17 14 13 21 33 28 19 12 9 9 7 8 9 9 10 12 13 13 12 10 8 5 2 2 4 6 7 7 8
6 5 3 5 7 8 3 7 9 5 5 4 5 8 9 16 13 12 22 31 33 29 21 15 13 11 12 11 12 14 14 14 13 11 9 6 4 1 1 4 6 7 8 9
2 3 2 6 8 3 2 1 15 7 3 6 5 4 10 15 8 25 28 31 32 34 27 22 17 17 15 15 16 18 18 15 12 10 7 4 2 3 6 7 9 10 11 11
4 5 6 4 5 3 6 9 5 7 3 4 8 14 23 15 23 28 31 38 34 33 31 29 23 20 19 19 22 23 20 18 15 11 7 6 6 7 7 8 8 9 11 11
6 5 4 10 11 1 7 8 8 9 13 9 6 9 18 24 22 18 31 32 34 30 30 31 32 24 22 25 27 27 24 22 18 15 13 11 10 9 9 9 9 11 11 11
5 2 1 3 13 9 5 16 16 15 15 14 18 18 17 22 26 26 31 34 35 35 36 36 35 33 33 33 34 34 32 30 28 25 20 17 14 13 12 12 12 12 12 12
5 4 4 3 6 7 11 12 16 10 12 10 15 12 13 13 16 20 34 36 28 30 34 37 34 37 35 34 39 40 37 37 38 35 28 22 18 17 16 14 13 11 11 12
4 4 3 4 6 2 13 10 9 7 13 15 18 13 15 15 10 25 25 12 29 40 47 47 43 38 38 41 40 41 46 44 44 43 35 27 27 24 20 15 12 11 13 15
16 7 2 5 6 8 18 13 8 11 8 16 13 16 10 11 15 7 17 29 34 41 49 53 50 44 41 40 43 50 50 47 48 49 45 35 30 27 21 17 13 15 18 20
5 7 6 3 4 10 9 4 13 7 7 12 4 11 14 10 5 9 37 40 44 48 52 57 55 52 46 39 41 45 50 51 54 51 46 38 33 27 19 17 15 17 21 24
5 1 12 9 8 13 13 7 5 10 12 7 6 2 6 8 17 23 37 43 42 48 51 54 55 51 48 42 38 42 46 49 49 49 43 34 29 23 20 20 20 21 23 24
12 12 9 5 3 14 18 12 12 14 9 9 8 13 21 24 28 40 46 43 42 46 46 47 51 48 44 42 34 32 32 34 38 34 30 26 15 17 23 19 20 22 23 24
6 13 8 14 11 13 7 21 21 33 23 32 33 38 34 35 46 44 44 35 38 41 38 37 39 34 33 29 22 15 18 20 26 32 35 32 34 24 17 19 23 24 24 24
8 16 6 5 20 37 48 48 48 49 52 55 60 53 46 48 48 43 31 39 42 40 32 23 23 21 18 16 14 8 7 10 17 19 17 15 12 15 20 25 25 24 24 23
11 12 8 11 35 31 53 58 56 61 54 54 55 50 42 40 36 42 51 48 43 40 33 26 18 15 18 16 10 8 7 7 8 11 14 17 20 25 27 26 27 26 26 25
23 15 11 13 35 20 35 48 43 41 45 47 50 48 54 44 50 46 50 48 42 33 28 28 27 26 21 27 24 15 13 18 20 28 29 30 29 29 29 29 29 28 28 27
Wind_Direction_500mb
170 104 91 120 291 29 334 323 306 53 318 302 241 247 208 161 165 264 242 193 175 189 192 191 189 192 194 201 200 213 221 228 227 229 235 238 238 245 254 257 262 262 262 264
124 61 128 108 12 44 360 353 3 183 301 286 339 246 278 205 177 185 243 201 188 180 184 187 197 201 200 201 207 208 214 226 235 237 243 248 250 253 259 262 262 261 260 262
26 91 132 116 89 56 67 46 312 340 265 179 292 265 212 239 244 176 219 247 149 178 191 206 207 208 212 212 213 215 214 220 221 233 231 238 237 248 251 253 255 265 267 263
291 141 138 115 86 28 104 13 356 359 341 71 287 269 72 187 140 181 224 220 246 239 205 151 213 222 227 226 226 227 227 228 230 231 230 236 244 249 258 270 271 263 267 265
82 144 160 163 156 156 102 300 4 345 344 360 70 54 289 10 75 41 41 42 20 216 187 201 223 221 227 240 238 235 231 233 234 235 238 239 242 248 252 247 246 259 261 258
90 38 133 77 158 197 189 176 98 21 352 357 284 171 340 66 18 49 67 53 29 3 310 242 230 226 229 237 241 238 236 235 233 232 233 237 244 249 256 262 263 267 271 268
149 121 123 148 130 192 256 139 61 80 97 228 9 21 280 72 49 30 344 347 0 349 347 341 270 236 239 242 242 237 239 237 235 238 242 248 255 261 265 268 270 267 268 263
187 126 150 149 4 137 218 168 139 73 47 347 305 218 240 88 65 37 22 356 351 7 18 19 13 303 266 240 230 228 234 237 239 243 248 249 248 250 253 260 266 266 266 266
355 90 102 26 3 360 165 106 104 117 125 21 238 235 310 96 67 49 35 17 15 16 9 10 3 342 298 201 196 202 207 205 199 190 185 185 193 203 216 246 274 291 279 267
312 32 5 115 218 87 15 163 90 5 128 215 254 199 216 66 36 34 22 19 19 10 350 336 334 301 262 223 200 192 181 174 173 176 177 180 190 212 244 265 280 289 294 279
5 347 34 213 191 130 155 200 50 114 99 231 5 93 16 85 70 42 21 18 11 9 357 326 302 287 249 227 210 201 194 183 180 177 170 163 159 176 295 313 313 311 300 292
27 350 299 66 26 36 360 350 153 158 190 260 82 292 101 119 125 74 37 14 2 2 347 327 306 281 262 247 220 203 196 183 176 166 159 154 147 143 318 325 320 311 305 297
98 59 232 344 356 123 243 159 81 98 62 201 154 206 168 158 95 25 20 2 343 335 340 324 303 284 260 235 221 205 191 189 189 185 183 196 245 301 314 315 315 313 309 304
125 46 345 65 46 23 35 356 358 143 150 295 230 282 294 356 347 353 2 341 339 327 324 315 308 288 257 239 222 216 214 209 212 221 248 276 295 300 303 303 305 306 307 306
354 109 29 341 343 189 193 212 191 198 239 233 293 322 324 306 311 344 337 333 336 338 336 331 327 295 264 250 237 233 234 233 237 246 260 275 288 295 296 297 298 301 304 309
8 116 51 50 13 18 276 259 271 235 228 247 248 272 264 342 17 340 325 337 344 343 338 337 327 327 284 260 247 245 248 249 245 248 254 264 266 271 274 284 291 293 292 291
62 118 28 226 336 340 335 242 209 216 253 242 255 268 19 325 312 326 330 326 342 354 351 344 324 314 308 292 268 260 259 252 245 246 251 255 262 270 269 268 268 274 284 291
135 87 36 261 11 85 242 288 274 294 299 301 289 302 294 293 335 314 313 357 352 350 348 338 330 311 300 292 288 275 265 258 251 247 249 256 261 257 260 264 267 283 295 299
200 179 156 144 197 293 314 314 173 172 292 274 279 286 299 42 339 77 36 353 341 338 334 335 328 315 301 300 278 275 272 267 258 249 244 245 250 246 249 255 270 288 295 299
310 247 143 121 168 217 232 78 83 116 281 287 349 89 58 6 341 276 334 340 334 329 327 326 325 317 310 294 294 270 266 260 246 243 240 242 238 230 235 249 265 281 290 292
104 191 221 228 231 270 252 172 109 98 233 133 96 301 211 243 263 295 316 322 320 319 318 317 316 315 310 304 295 286 263 256 247 238 232 230 224 216 227 245 261 273 281 284
166 161 200 187 238 267 241 121 167 215 277 273 295 300 289 271 277 292 306 314 314 311 312 313 311 310 306 300 298 291 272 251 241 233 224 209 215 246 232 244 268 280 284 285
229 190 181 181 211 230 199 221 248 253 259 275 287 291 293 280 292 295 302 302 312 312 312 317 314 315 314 305 301 294 269 240 226 213 207 213 214 227 259 274 281 280 276 275
241 242 214 92 248 247 263 267 267 266 267 277 286 287 288 282 287 291 294 304 304 303 300 318 329 325 343 347 327 292 223 212 210 196 214 227 242 260 277 280 276 271 269 268
199 153 184 256 271 272 269 264 268 271 273 278 286 282 293 291 284 287 290 295 294 293 287 291 299 316 323 335 337 321 287 214 208 248 256 265 274 275 277 275 267 265 267 269
201 213 204 236 251 239 268 280 285 282 279 278 286 282 294 285 291 289 282 285 280 280 286 288 293 289 282 280 303 318 299 286 276 272 273 274 275 277 275 271 268 267 269 272
Wind_Speed_850mb
7 6 12 17 3 4 17 17 12 1 10 9 13 12 12 23 14 7 15 20 29 28 33 33 38 39 40 38 41 36 35 34 36 39 40 39 41 39 40 40 38 37 38 37
4 16 17 12 17 5 16 18 5 5 5 5 13 10 9 6 12 16 15 11 22 19 24 33 34 36 42 42 40 40 38 37 38 39 40 40 39 41 42 38 37 37 38 37
12 14 26 21 8 4 10 9 14 8 5 1 8 9 11 13 14 19 14 12 5 23 32 30 37 42 42 45 43 45 42 42 41 40 39 37 37 40 37 34 35 36 35 37
4 19 18 16 14 3 5 10 22 26 14 3 4 3 8 3 10 3 13 16 15 11 12 13 21 26 32 39 46 44 47 49 47 50 49 49 43 41 34 25 26 28 33 35
7 13 18 13 9 18 5 12 13 22 14 10 2 6 7 8 11 15 21 18 8 1 12 21 21 19 29 36 34 34 36 39 39 41 42 42 42 40 39 38 38 41 38 30
9 7 4 2 19 21 15 10 9 8 9 6 8 1 8 6 3 5 10 12 12 12 7 18 33 30 38 39 34 32 33 31 29 29 29 30 31 32 34 35 37 37 36 35
7 10 7 2 14 12 8 9 3 2 3 4 8 7 10 11 10 7 11 13 13 14 9 8 6 19 32 35 35 32 30 27 27 28 29 29 30 32 32 33 32 32 29 29
4 3 6 6 7 4 11 9 5 3 3 5 6 8 2 12 18 19 21 22 13 8 9 8 5 3 6 12 16 19 22 23 24 23 21 19 18 16 14 13 14 17 20 23
10 8 9 9 8 8 4 6 2 8 5 2 6 7 11 16 15 19 25 28 25 14 11 5 5 3 1 4 9 12 14 14 12 11 10 9 8 6 4 4 4 6 7 11
8 1 7 8 5 4 5 14 5 6 6 5 7 5 7 16 15 20 27 30 24 16 9 10 6 4 4 5 8 11 13 13 13 13 11 9 6 4 4 4 4 5 5 6
15 6 4 2 7 4 5 2 8 7 2 1 4 2 7 17 14 13 21 33 28 19 12 9 9 7 8 9 9 10 12 13 13 12 10 8 5 2 2 4 6 7 7 8
6 5 3 5 7 8 3 7 9 5 5 4 5 8 9 16 13 12 22 31 33 29 21 15 13 11 12 11 12 14 14 14 13 11 9 6 4 1 1 4 6 7 8 9
2 3 2 6 8 3 2 1 15 7 3 6 5 4 10 15 8 25 28 31 32 34 27 22 17 17 15 15 16 18 18 15 12 10 7 4 2 3 6 7 9 10 11 11
4 5 6 4 5 3 6 9 5 7 3 4 8 14 23 15 23 28 31 38 34 33 31 29 23 20 19 19 22 23 20 18 15 11 7 6 6 7 7 8 8 9 11 11
6 5 4 10 11 1 7 8 8 9 13 9 6 9 18 24 22 18 31 32 34 30 30 31 32 24 22 25 27 27 24 22 18 15 13 11 10 9 9 9 9 11 11 11
5 2 1 3 13 9 5 16 16 15 15 14 18 18 17 22 26 26 31 34 35 35 36 36 35 33 33 33 34 34 32 30 28 25 20 17 14 13 12 12 12 12 12 12
5 4 4 3 6 7 11 12 16 10 12 10 15 12 13 13 16 20 34 36 28 30 34 37 34 37 35 34 39 40 37 37 38 35 28 22 18 17 16 14 13 11 11 12
4 4 3 4 6 2 13 10 9 7 13 15 18 13 15 15 10 25 25 12 29 40 47 47 43 38 38 41 40 41 46 44 44 43 35 27 27 24 20 15 12 11 13 15
16 7 2 5 6 8 18 13 8 11 8 16 13 16 10 11 15 7 17 29 34 41 49 53 50 44 41 40 43 50 50 47 48 49 45 35 30 27 21 17 13 15 18 20
5 7 6 3 4 10 9 4 13 7 7 12 4 11 14 10 5 9 37 40 44 48 52 57 55 52 46 39 41 45 50 51 54 51 46 38 33 27 19 17 15 17 21 24
5 1 12 9 8 13 13 7 5 10 12 7 6 2 6 8 17 23 37 43 42 48 51 54 55 51 48 42 38 42 46 49 49 49 43 34 29 23 20 20 20 21 23 24
12 12 9 5 3 14 18 12 12 14 9 9 8 13 21 24 28 40 46 43 42 46 46 47 51 48 44 42 34 32 32 34 38 34 30 26 15 17 23 19 20 22 23 24
6 13 8 14 11 13 7 21 21 33 23 32 33 38 34 35 46 44 44 35 38 41 38 37 39 34 33 29 22 15 18 20 26 32 35 32 34 24 17 19 23 24 24 24
8 16 6 5 20 37 48 48 48 49 52 55 60 53 46 48 48 43 31 39 42 40 32 23 23 21 18 16 14 8 7 10 17 19 17 15 12 15 20 25 25 24 24 23
11 12 8 11 35 31 53 58 56 61 54 54 55 50 42 40 36 42 51 48 43 40 33 26 18 15 18 16 10 8 7 7 8 11 14 17 20 25 27 26 27 26 26 25
23 15 11 13 35 20 35 48 43 41 45 47 50 48 54 44 50 46 50 48 42 33 28 28 27 26 21 27 24 15 13 18 20 28 29 30 29 29 29 29 29 28 28 27
Wind_Direction_850mb
170 104 91 120 291 29 334 323 306 53 318 302 241 247 208 161 165 264 242 193 175 189 192 191 189 192 194 201 200 213 221 228 227 229 235 238 238 245 254 257 262 262 262 264
124 61 128 108 12 44 360 353 3 183 301 286 339 246 278 205 177 185 243 201 188 180 184 187 197 201 200 201 207 208 214 226 235 237 243 248 250 253 259 262 262 261 260 262
26 91 132 116 89 56 67 46 312 340 265 179 292 265 212 239 244 176 219 247 149 178 191 206 207 208 212 212 213 215 214 220 221 233 231 238 237 248 251 253 255 265 267 263
291 141 138 115 86 28 104 13 356 359 341 71 287 269 72 187 140 181 224 220 246 239 205 151 213 222 227 226 226 227 227 228 230 231 230 236 244 249 258 270 271 263 267 265
82 144 160 163 156 156 102 300 4 345 344 360 70 54 289 10 75 41 41 42 20 216 187 201 223 221 227 240 238 235 231 233 234 235 238 239 242 248 252 247 246 259 261 258
90 38 133 77 158 197 189 176 98 21 352 357 284 171 340 66 18 49 67 53 29 3 310 242 230 226 229 237 241 238 236 235 233 232 233 237 244 249 256 262 263 267 271 268
149 121 123 148 130 192 256 139 61 80 97 228 9 21 280 72 49 30 344 347 0 349 347 341 270 236 239 242 242 237 239 237 235 238 242 248 255 261 265 268 270 267 268 263
187 126 150 149 4 137 218 168 139 73 47 347 305 218 240 88 65 37 22 356 351 7 18 19 13 303 266 240 230 228 234 237 239 243 248 249 248 250 253 260 266 266 266 266
355 90 102 26 3 360 165 106 104 117 125 21 238 235 310 96 67 49 35 17 15 16 9 10 3 342 298 201 196 202 207 205 199 190 185 185 193 203 216 246 274 291 279 267
312 32 5 115 218 87 15 163 90 5 128 215 254 199 216 66 36 34 22 19 19 10 350 336 334 301 262 223 200 192 181 174 173 176 177 180 190 212 244 265 280 289 294 279
5 347 34 213 191 130 155 200 50 114 99 231 5 93 16 85 70 42 21 18 11 9 357 326 302 287 249 227 210 201 194 183 180 177 170 163 159 176 295 313 313 311 300 292
27 350 299 66 26 36 360 350 153 158 190 260 82 292 101 119 125 74 37 14 2 2 347 327 306 281 262 247 220 203 196 183 176 166 159 154 147 143 318 325 320 311 305 297
98 59 232 344 356 123 243 159 81 98 62 201 154 206 168 158 95 25 20 2 343 335 340 324 303 284 260 235 221 205 191 189 189 185 183 196 245 301 314 315 315 313 309 304
125 46 345 65 46 23 35 356 358 143 150 295 230 282 294 356 347 353 2 341 339 327 324 315 308 288 257 239 222 216 214 209 212 221 248 276 295 300 303 303 305 306 307 306
354 109 29 341 343 189 193 212 191 198 239 233 293 322 324 306 311 344 337 333 336 338 336 331 327 295 264 250 237 233 234 233 237 246 260 275 288 295 296 297 298 301 304 309
8 116 51 50 13 18 276 259 271 235 228 247 248 272 264 342 17 340 325 337 344 343 338 337 327 327 284 260 247 245 248 249 245 248 254 264 266 271 274 284 291 293 292 291
62 118 28 226 336 340 335 242 209 216 253 242 255 268 19 325 312 326 330 326 342 354 351 344 324 314 308 292 268 260 259 252 245 246 251 255 262 270 269 268 268 274 284 291
135 87 36 261 11 85 242 288 274 294 299 301 289 302 294 293 335 314 313 357 352 350 348 338 330 311 300 292 288 275 265 258 251 247 249 256 261 257 260 264 267 283 295 299
200 179 156 144 197 293 314 314 173 172 292 274 279 286 299 42 339 77 36 353 341 338 334 335 328 315 301 300 278 275 272 267 258 249 244 245 250 246 249 255 270 288 295 299
310 247 143 121 168 217 232 78 83 116 281 287 349 89 58 6 341 276 334 340 334 329 327 326 325 317 310 294 294 270 266 260 246 243 240 242 238 230 235 249 265 281 290 292
104 191 221 228 231 270 252 172 109 98 233 133 96 301 211 243 263 295 316 322 320 319 318 317 316 315 310 304 295 286 263 256 247 238 232 230 224 216 227 245 261 273 281 284
166 161 200 187 238 267 241 121 167 215 277 273 295 300 289 271 277 292 306 314 314 311 312 313 311 310 306 300 298 291 272 251 241 233 224 209 215 246 232 244 268 280 284 285
229 190 181 181 211 230 199 221 248 253 259 275 287 291 293 280 292 295 302 302 312 312 312 317 314 315 314 305 301 294 269 240 226 213 207 213 214 227 259 274 281 280 276 275
241 242 214 92 248 247 263 267 267 266 267 277 286 287 288 282 287 291 294 304 304 303 300 318 329 325 343 347 327 292 223 212 210 196 214 227 242 260 277 280 276 271 269 268
199 153 184 256 271 272 269 264 268 271 273 278 286 282 293 291 284 287 290 295 294 293 287 291 299 316 323 335 337 321 287 214 208 248 256 265 274 275 277 275 267 265 267 269
201 213 204 236 251 239 268 280 285 282 279 278 286 282 294 285 291 289 282 285 280 280 286 288 293 289 282 280 303 318 299 286 276 272 273 274 275 277 275 271 268 267 269 272